Temp
54 53 53 52 52 51 50 49 50 49 48 47 47 46 46 46 45 45 44 43 43 43 42 42 42 41 40 40 40 41 41 41 41 42 43 43 42 42 41 41 41 40 40 40 39 39 39 39 39 38 38 38 38 38 38 38 38 38 38 37 36 36 35 35 34 34 34 34 34
54 53 53 54 54 51 49 49 49 48 48 47 46 46 46 46 45 45 44 43 43 43 42 42 42 41 40 40 40 41 41 41 41 41 42 42 42 41 41 41 40 40 40 39 39 39 39 38 38 38 37 37 38 38 38 37 37 37 37 36 36 36 35 35 35 34 34 34 35
53 53 52 52 51 50 49 48 47 46 45 46 45 46 46 45 45 45 44 44 43 42 42 42 42 41 40 40 40 40 40 40 40 40 41 42 41 41 41 41 40 40 40 39 38 38 39 38 39 38 38 37 37 37 37 37 37 37 36 36 36 35 35 35 34 34 35 35 34
52 51 51 50 49 49 48 49 47 46 45 46 45 45 46 46 46 45 44 43 42 42 43 42 42 42 41 40 40 40 40 41 40 40 40 41 41 41 40 40 39 39 38 38 37 37 38 38 38 38 37 37 36 36 37 37 37 36 36 36 35 35 35 34 34 35 35 34 34
51 51 51 50 49 49 49 48 47 46 46 46 45 46 46 46 46 45 44 44 44 44 43 42 42 43 42 41 40 39 39 40 41 41 40 40 40 40 40 40 39 39 38 37 37 37 37 37 38 38 37 36 36 36 36 36 36 35 35 35 35 35 34 34 34 35 34 34 33
51 50 50 50 49 49 49 49 48 47 46 46 46 46 46 46 45 45 45 45 44 42 42 43 43 43 43 40 39 39 39 39 40 40 40 40 40 40 40 39 39 39 38 37 37 36 36 37 37 37 37 36 35 35 36 35 35 34 34 35 35 35 35 34 34 34 34 33 33
50 50 50 49 49 48 48 47 47 47 46 46 45 45 45 45 45 44 44 44 43 43 43 45 44 43 42 40 40 39 39 39 39 39 39 39 39 39 39 39 39 38 37 37 36 36 36 36 37 37 37 37 36 35 34 35 34 34 34 34 35 35 34 33 34 34 33 32 32
50 49 49 49 48 48 47 47 47 47 47 47 46 45 45 45 44 44 44 44 43 43 44 44 43 42 41 40 40 39 39 38 39 39 38 38 38 38 39 39 39 38 37 37 37 36 36 36 37 36 36 36 35 35 34 33 34 33 33 33 34 34 34 33 32 32 32 31 31
49 48 48 48 47 47 46 46 46 46 47 47 46 46 45 45 44 44 44 44 44 44 44 44 42 41 41 40 40 39 39 39 38 38 38 38 38 38 38 38 38 38 38 37 37 36 36 36 36 36 35 35 35 34 33 33 33 32 33 33 33 33 33 33 32 32 31 31 30
48 48 47 47 47 46 46 45 45 45 46 46 46 45 46 47 46 46 45 45 45 44 43 43 42 41 41 40 40 39 39 39 39 38 38 38 38 38 37 38 38 38 37 37 37 36 36 36 36 35 35 35 34 33 33 33 32 32 32 33 33 33 32 32 32 31 31 31 30
48 47 47 47 46 46 46 45 45 45 46 46 45 45 46 47 46 46 45 45 44 43 43 42 41 41 41 40 40 39 39 39 38 38 38 38 38 37 37 37 37 37 37 36 36 36 36 36 35 34 34 35 34 33 33 32 32 32 32 32 32 32 31 31 31 31 31 31 30
47 47 47 47 46 46 45 45 44 45 45 45 45 45 45 45 45 45 45 43 43 43 42 41 41 41 40 40 40 40 40 38 38 38 37 37 37 37 36 36 36 36 36 36 36 36 35 35 35 34 34 34 33 33 32 32 31 31 31 31 31 31 30 30 30 31 31 30 30
47 47 47 46 46 45 44 44 44 44 44 45 45 46 46 46 45 45 44 43 43 43 43 41 41 40 40 40 40 40 39 39 38 38 38 37 37 36 36 36 36 36 36 36 36 35 35 35 34 33 33 33 32 32 31 31 31 30 30 30 30 30 30 30 30 30 30 30 29
47 47 46 46 45 45 44 44 44 44 44 44 45 45 45 45 45 45 45 44 43 43 42 41 41 41 41 40 40 39 39 39 39 38 38 38 37 36 36 35 36 36 36 36 36 35 34 34 33 33 32 32 32 31 31 31 30 30 30 30 30 30 30 29 29 29 29 29 29
47 47 46 46 45 44 44 43 44 44 44 44 44 44 44 45 45 45 45 43 43 42 41 41 41 41 41 40 39 39 39 39 38 38 38 37 37 37 36 35 35 35 35 35 35 35 34 33 33 32 32 32 31 31 31 31 30 30 30 30 30 30 30 29 29 29 29 29 28
47 46 46 45 45 44 44 44 44 44 44 44 44 43 44 44 44 44 44 43 42 42 41 41 41 40 40 40 39 39 38 38 38 37 37 36 37 37 36 36 35 35 35 34 34 34 34 33 33 32 32 32 31 31 30 30 30 30 30 30 30 30 30 29 29 29 29 29 28
46 46 46 45 44 44 44 44 44 44 44 43 43 43 43 43 43 43 43 43 42 42 41 40 40 39 39 39 39 39 38 38 37 37 37 36 36 36 36 36 35 35 34 33 33 33 33 33 33 33 32 32 31 31 30 30 30 30 30 30 30 30 30 30 30 29 29 29 29
46 45 45 44 44 43 43 43 43 43 42 42 42 42 42 42 42 42 42 43 42 41 40 39 39 39 38 37 38 38 38 37 37 36 36 36 36 36 36 35 35 35 34 33 33 33 33 33 33 33 32 32 31 31 30 30 29 29 30 30 30 29 30 30 30 30 30 29 29
45 45 44 43 43 43 42 43 43 43 42 41 41 41 40 41 41 41 41 41 41 40 40 39 39 39 38 37 37 38 38 37 36 36 36 35 35 35 35 35 35 35 34 33 33 33 33 33 33 32 32 31 31 30 30 30 29 29 29 29 29 29 29 29 30 30 30 29 30
45 44 44 43 43 42 42 42 43 42 42 41 41 40 40 40 40 40 40 40 40 40 39 39 39 39 38 38 37 37 38 38 36 36 35 35 35 35 35 35 35 34 34 32 33 33 33 33 32 32 31 31 30 30 29 29 29 29 29 29 29 29 29 29 29 29 29 29 29
45 44 44 44 43 43 42 42 42 42 42 41 41 40 40 40 40 39 39 39 39 39 39 38 38 38 38 37 37 37 37 38 37 36 36 35 35 35 35 35 34 34 33 32 32 32 32 32 32 31 31 30 30 29 29 29 29 28 28 28 28 28 29 29 29 29 29 29 29
44 44 44 44 43 43 43 43 42 42 41 41 41 40 40 40 40 40 39 39 39 38 38 38 38 38 37 37 37 37 37 37 36 36 36 35 35 35 35 35 34 33 33 31 31 31 32 32 31 31 30 30 29 29 29 29 28 28 28 28 28 28 28 28 29 29 29 29 29
43 43 43 44 43 44 44 43 42 41 41 41 40 40 40 40 40 39 39 38 39 39 38 38 38 38 37 37 37 36 36 36 35 35 35 35 35 35 35 35 33 33 32 31 31 31 30 30 30 30 30 29 29 29 29 29 29 28 28 28 28 28 28 28 28 29 29 29 29
42 43 43 44 43 42 42 42 41 41 41 41 40 40 40 40 39 39 38 38 38 38 38 39 38 38 37 37 36 36 35 35 34 34 34 34 35 34 34 34 33 32 32 31 31 31 31 30 30 30 29 29 29 29 29 29 29 28 28 27 27 27 27 28 28 28 28 28 29
41 41 42 42 41 41 41 41 41 41 41 41 40 40 40 39 39 38 38 38 38 38 37 37 37 37 37 37 36 36 35 35 34 34 34 34 34 34 34 34 33 32 32 32 35 36 36 34 32 31 29 29 29 29 29 29 28 28 28 27 27 27 27 27 27 28 28 28 28
39 39 39 40 40 40 40 40 40 40 41 41 40 40 39 39 39 38 38 38 38 37 37 37 37 37 37 36 36 35 35 35 35 34 34 33 33 33 33 33 32 31 31 34 37 39 39 38 37 34 31 29 29 29 28 28 28 28 28 28 27 27 27 27 27 27 28 28 28
38 38 37 38 38 38 38 39 39 39 40 40 39 39 39 39 39 39 38 37 37 37 36 36 36 37 38 37 35 35 35 35 35 34 33 33 32 32 32 32 31 30 31 35 38 39 40 40 39 37 34 29 29 29 28 28 28 28 28 28 28 27 27 27 27 27 28 28 28
37 37 37 37 37 37 37 38 38 39 39 39 39 39 39 39 38 38 38 37 37 36 36 36 36 37 37 36 35 34 34 34 34 34 33 33 32 32 32 32 31 31 32 36 38 40 40 41 40 39 37 32 29 28 28 28 28 28 28 28 28 27 27 27 28 28 28 27 27
37 37 36 36 36 36 36 37 37 38 39 39 39 39 38 38 38 38 37 37 36 36 36 36 36 36 36 35 35 34 34 33 33 33 33 32 32 32 31 31 30 32 34 38 39 40 40 41 41 41 39 37 32 29 29 29 28 28 28 28 28 28 28 28 28 28 28 28 27
36 36 36 36 36 36 36 36 37 38 38 39 38 38 38 37 37 37 36 36 36 36 36 35 35 35 34 34 33 33 33 33 33 33 32 31 31 31 31 32 31 32 34 38 39 40 40 41 41 41 41 39 34 31 29 29 29 29 28 28 28 28 28 28 28 28 28 28 28
36 35 35 35 36 36 36 37 37 38 38 38 38 37 37 37 36 36 35 35 35 36 36 35 34 34 33 33 33 32 32 32 32 32 31 31 32 32 31 31 30 31 34 38 39 40 40 41 41 41 41 41 37 33 30 29 29 29 29 28 28 28 28 28 28 28 28 28 28
36 36 36 36 36 36 37 37 37 38 38 37 37 37 37 36 36 36 35 36 35 35 35 34 34 33 33 32 32 32 31 31 31 31 31 31 31 31 31 31 30 31 34 38 39 40 40 41 41 41 41 42 39 34 31 29 29 29 29 28 28 28 28 28 28 28 28 28 28
37 36 36 36 37 37 37 37 38 38 37 37 37 37 37 36 36 35 35 35 35 34 34 34 34 33 33 32 32 32 31 31 32 32 33 32 31 31 31 31 31 32 35 38 39 40 40 40 41 41 41 42 39 35 32 30 29 29 29 29 28 28 28 28 28 29 29 28 29
37 37 37 37 37 38 38 38 38 38 38 37 37 37 36 35 35 35 35 35 35 34 34 33 33 33 33 33 32 32 32 33 32 32 32 32 31 31 31 31 32 34 36 38 39 39 40 40 41 41 41 42 39 36 33 30 30 29 29 29 29 29 29 28 28 28 28 29 29
37 37 37 38 38 38 39 39 39 39 38 37 37 37 36 35 35 35 35 36 36 35 33 33 33 33 33 33 33 33 33 33 32 32 31 31 31 31 31 31 31 34 37 38 39 39 40 40 41 41 41 41 38 36 33 31 30 29 29 29 29 29 28 28 28 28 28 28 29
39 39 39 40 40 40 40 40 40 39 38 38 37 37 36 35 35 35 35 37 36 34 33 33 32 32 32 32 33 33 33 33 32 32 32 32 31 31 30 31 31 34 37 38 39 39 40 40 40 41 40 39 37 35 34 32 30 29 29 29 29 29 29 29 28 28 28 28 28
42 42 42 42 42 42 42 41 41 40 39 39 38 37 37 36 35 35 35 36 34 33 33 32 32 32 32 32 33 33 33 33 32 32 32 33 32 31 31 31 31 33 35 38 39 39 40 40 40 41 40 38 36 35 34 32 31 30 29 29 29 29 29 29 29 29 28 28 28
43 43 42 43 43 43 43 42 42 41 40 40 39 38 38 37 36 35 35 37 34 33 33 32 32 32 32 32 33 33 33 33 33 33 33 33 33 32 31 31 31 32 34 37 39 39 40 40 40 40 39 37 35 34 34 32 31 30 29 29 30 30 30 30 30 30 29 28 30
44 44 43 43 43 43 43 43 42 42 41 41 40 39 38 38 37 36 36 36 34 33 33 33 32 32 33 33 33 33 33 33 33 33 33 33 33 33 33 32 31 32 34 37 38 39 40 40 40 41 40 37 35 34 34 33 31 30 30 30 30 30 30 31 31 30 30 29 32
45 45 44 44 44 44 44 43 43 43 42 42 41 40 39 38 38 38 37 36 35 34 33 33 32 33 34 35 34 33 32 32 33 33 34 34 34 35 36 34 32 32 34 37 38 39 39 40 40 41 40 38 36 35 34 33 32 31 30 30 30 30 30 31 31 31 31 30 32
46 45 45 45 44 44 44 44 44 43 43 42 41 41 40 40 39 38 37 36 35 34 34 34 33 33 34 35 34 33 32 32 32 33 33 34 35 36 37 35 33 33 33 36 38 39 39 40 40 41 40 38 36 35 34 34 32 31 30 30 31 31 31 31 31 31 31 31 32
MSLP
1013.04 1013.16 1013.32 1013.44 1013.52 1013.64 1013.80 1013.84 1013.92 1014.00 1014.16 1014.28 1014.36 1014.48 1014.52 1014.64 1014.72 1014.72 1014.80 1014.88 1014.96 1015.08 1015.12 1015.24 1015.36 1015.48 1015.56 1015.68 1015.76 1015.80 1015.88 1015.96 1016.08 1016.12 1016.20 1016.28 1016.36 1016.52 1016.64 1016.76 1016.92 1017.04 1017.20 1017.32 1017.52 1017.72 1017.92 1018.12 1018.32 1018.48 1018.60 1018.68 1018.80 1018.92 1018.96 1019.08 1019.16 1019.24 1019.36 1019.44 1019.60 1019.76 1019.92 1020.00 1020.08 1020.12 1020.20 1020.32 1020.36
1012.80 1012.84 1012.96 1013.12 1013.24 1013.36 1013.52 1013.64 1013.72 1013.80 1013.88 1014.00 1014.08 1014.16 1014.28 1014.36 1014.44 1014.52 1014.52 1014.64 1014.64 1014.72 1014.84 1014.92 1015.08 1015.24 1015.36 1015.44 1015.52 1015.56 1015.64 1015.76 1015.84 1015.92 1016.04 1016.08 1016.20 1016.32 1016.52 1016.64 1016.80 1016.92 1017.00 1017.16 1017.32 1017.52 1017.72 1017.92 1018.08 1018.24 1018.40 1018.52 1018.64 1018.76 1018.80 1018.88 1019.00 1019.12 1019.24 1019.32 1019.44 1019.64 1019.80 1019.92 1019.92 1019.96 1020.08 1020.16 1020.20
1012.56 1012.64 1012.76 1012.92 1013.04 1013.24 1013.36 1013.48 1013.56 1013.64 1013.72 1013.76 1013.80 1013.92 1014.00 1014.08 1014.16 1014.20 1014.28 1014.32 1014.36 1014.48 1014.60 1014.72 1014.84 1014.96 1015.12 1015.24 1015.32 1015.40 1015.52 1015.60 1015.72 1015.80 1015.92 1015.96 1016.08 1016.20 1016.36 1016.52 1016.64 1016.76 1016.88 1017.04 1017.16 1017.28 1017.44 1017.64 1017.80 1018.00 1018.16 1018.28 1018.40 1018.52 1018.60 1018.72 1018.84 1018.96 1019.08 1019.16 1019.36 1019.52 1019.64 1019.76 1019.80 1019.88 1019.96 1020.04 1020.08
1012.40 1012.52 1012.60 1012.72 1012.84 1012.96 1013.08 1013.20 1013.32 1013.40 1013.48 1013.52 1013.60 1013.68 1013.80 1013.84 1013.92 1013.96 1014.08 1014.12 1014.20 1014.28 1014.36 1014.52 1014.64 1014.76 1014.92 1015.08 1015.20 1015.28 1015.36 1015.44 1015.56 1015.68 1015.80 1015.88 1015.96 1016.08 1016.20 1016.36 1016.52 1016.64 1016.80 1016.92 1017.04 1017.16 1017.28 1017.48 1017.60 1017.72 1017.88 1018.00 1018.16 1018.24 1018.36 1018.52 1018.72 1018.84 1018.92 1019.08 1019.24 1019.36 1019.52 1019.56 1019.64 1019.72 1019.80 1019.88 1019.96
1012.24 1012.32 1012.40 1012.52 1012.60 1012.64 1012.76 1012.88 1013.04 1013.16 1013.24 1013.28 1013.40 1013.52 1013.52 1013.64 1013.68 1013.80 1013.88 1013.96 1014.04 1014.08 1014.16 1014.28 1014.40 1014.56 1014.68 1014.88 1015.00 1015.12 1015.24 1015.32 1015.40 1015.52 1015.64 1015.76 1015.80 1015.92 1016.04 1016.20 1016.36 1016.48 1016.56 1016.76 1016.88 1017.00 1017.12 1017.28 1017.40 1017.52 1017.60 1017.76 1017.84 1017.96 1018.12 1018.36 1018.56 1018.68 1018.80 1018.96 1019.08 1019.20 1019.28 1019.36 1019.48 1019.52 1019.64 1019.72 1019.80
1012.12 1012.16 1012.20 1012.24 1012.36 1012.44 1012.52 1012.60 1012.72 1012.84 1012.96 1013.08 1013.24 1013.32 1013.36 1013.44 1013.52 1013.60 1013.64 1013.76 1013.80 1013.84 1013.96 1014.08 1014.20 1014.32 1014.48 1014.64 1014.84 1014.96 1015.08 1015.24 1015.28 1015.36 1015.48 1015.56 1015.64 1015.80 1015.92 1016.00 1016.12 1016.24 1016.40 1016.52 1016.68 1016.80 1016.96 1017.08 1017.20 1017.28 1017.36 1017.52 1017.64 1017.76 1017.92 1018.12 1018.36 1018.52 1018.64 1018.80 1018.88 1018.96 1019.08 1019.16 1019.24 1019.28 1019.40 1019.52 1019.64
1012.00 1012.04 1012.08 1012.12 1012.20 1012.24 1012.36 1012.36 1012.52 1012.64 1012.72 1012.84 1013.00 1013.08 1013.16 1013.24 1013.32 1013.40 1013.44 1013.48 1013.56 1013.68 1013.80 1013.88 1014.00 1014.12 1014.28 1014.44 1014.60 1014.76 1014.92 1015.04 1015.08 1015.20 1015.28 1015.40 1015.52 1015.64 1015.72 1015.80 1015.96 1016.08 1016.20 1016.36 1016.52 1016.64 1016.80 1016.92 1017.00 1017.08 1017.12 1017.28 1017.44 1017.56 1017.72 1017.88 1018.08 1018.20 1018.36 1018.52 1018.60 1018.68 1018.80 1018.92 1018.92 1019.04 1019.16 1019.28 1019.40
1011.88 1011.92 1011.92 1012.00 1012.04 1012.08 1012.16 1012.20 1012.32 1012.44 1012.56 1012.64 1012.76 1012.80 1012.88 1012.96 1013.08 1013.12 1013.20 1013.28 1013.36 1013.48 1013.52 1013.64 1013.72 1013.84 1013.96 1014.16 1014.32 1014.48 1014.64 1014.80 1014.88 1015.00 1015.12 1015.24 1015.36 1015.44 1015.52 1015.64 1015.80 1015.92 1016.04 1016.20 1016.36 1016.52 1016.64 1016.76 1016.80 1016.84 1016.92 1017.04 1017.16 1017.28 1017.40 1017.56 1017.68 1017.84 1018.00 1018.08 1018.20 1018.36 1018.52 1018.60 1018.68 1018.80 1018.92 1019.04 1019.16
1011.80 1011.80 1011.84 1011.88 1011.92 1011.96 1012.00 1012.08 1012.16 1012.24 1012.36 1012.40 1012.52 1012.52 1012.60 1012.72 1012.80 1012.88 1012.96 1013.08 1013.08 1013.16 1013.24 1013.36 1013.44 1013.56 1013.72 1013.84 1014.00 1014.16 1014.32 1014.48 1014.64 1014.76 1014.92 1015.00 1015.12 1015.24 1015.36 1015.48 1015.56 1015.68 1015.84 1016.04 1016.20 1016.36 1016.48 1016.60 1016.64 1016.64 1016.68 1016.80 1016.92 1017.08 1017.20 1017.32 1017.44 1017.56 1017.68 1017.80 1018.00 1018.16 1018.28 1018.40 1018.52 1018.64 1018.72 1018.80 1018.92
1011.80 1011.80 1011.80 1011.84 1011.84 1011.84 1011.88 1011.92 1011.96 1012.04 1012.12 1012.20 1012.24 1012.28 1012.36 1012.44 1012.52 1012.64 1012.68 1012.76 1012.80 1012.92 1013.04 1013.08 1013.20 1013.36 1013.48 1013.60 1013.68 1013.84 1013.96 1014.16 1014.28 1014.44 1014.60 1014.76 1014.88 1014.96 1015.08 1015.24 1015.36 1015.48 1015.64 1015.80 1015.96 1016.16 1016.32 1016.40 1016.44 1016.48 1016.52 1016.64 1016.76 1016.92 1017.08 1017.24 1017.36 1017.48 1017.56 1017.64 1017.80 1018.00 1018.16 1018.28 1018.36 1018.52 1018.56 1018.64 1018.76
1011.72 1011.72 1011.76 1011.80 1011.76 1011.76 1011.80 1011.84 1011.88 1011.92 1011.92 1011.96 1012.00 1012.08 1012.12 1012.20 1012.24 1012.32 1012.36 1012.48 1012.60 1012.68 1012.72 1012.80 1012.92 1013.08 1013.16 1013.24 1013.40 1013.52 1013.64 1013.80 1014.00 1014.12 1014.28 1014.44 1014.52 1014.64 1014.80 1014.92 1015.08 1015.20 1015.36 1015.60 1015.76 1015.92 1016.08 1016.16 1016.20 1016.24 1016.36 1016.44 1016.52 1016.72 1016.88 1017.04 1017.20 1017.36 1017.48 1017.60 1017.68 1017.88 1018.00 1018.08 1018.24 1018.36 1018.44 1018.52 1018.64
1011.68 1011.64 1011.64 1011.64 1011.64 1011.68 1011.72 1011.80 1011.80 1011.80 1011.80 1011.80 1011.84 1011.88 1011.92 1011.96 1012.00 1012.08 1012.16 1012.28 1012.36 1012.36 1012.40 1012.52 1012.64 1012.76 1012.84 1012.96 1013.08 1013.20 1013.36 1013.52 1013.64 1013.80 1013.96 1014.08 1014.20 1014.32 1014.48 1014.64 1014.76 1014.92 1015.08 1015.24 1015.48 1015.64 1015.76 1015.84 1015.88 1016.00 1016.08 1016.16 1016.32 1016.48 1016.64 1016.80 1017.00 1017.16 1017.32 1017.48 1017.60 1017.72 1017.84 1017.92 1018.08 1018.20 1018.32 1018.36 1018.52
1011.64 1011.64 1011.60 1011.60 1011.60 1011.60 1011.64 1011.72 1011.68 1011.68 1011.68 1011.68 1011.68 1011.68 1011.72 1011.72 1011.76 1011.84 1011.92 1012.04 1012.04 1012.08 1012.16 1012.24 1012.36 1012.48 1012.56 1012.64 1012.80 1012.92 1013.04 1013.16 1013.32 1013.44 1013.56 1013.68 1013.80 1013.96 1014.12 1014.24 1014.36 1014.52 1014.68 1014.88 1015.08 1015.24 1015.36 1015.48 1015.56 1015.64 1015.80 1015.92 1016.04 1016.20 1016.36 1016.56 1016.76 1016.92 1017.08 1017.28 1017.40 1017.52 1017.64 1017.72 1017.84 1017.96 1018.08 1018.20 1018.32
1011.52 1011.52 1011.52 1011.48 1011.52 1011.52 1011.56 1011.60 1011.60 1011.56 1011.56 1011.56 1011.52 1011.52 1011.52 1011.56 1011.56 1011.64 1011.68 1011.80 1011.80 1011.80 1011.92 1012.04 1012.08 1012.16 1012.24 1012.36 1012.48 1012.56 1012.72 1012.80 1012.96 1013.08 1013.20 1013.28 1013.44 1013.60 1013.76 1013.88 1014.00 1014.16 1014.36 1014.52 1014.68 1014.80 1014.92 1015.08 1015.16 1015.32 1015.48 1015.60 1015.76 1015.92 1016.08 1016.24 1016.40 1016.60 1016.76 1016.92 1017.08 1017.20 1017.28 1017.40 1017.56 1017.72 1017.84 1017.96 1018.04
1011.48 1011.44 1011.44 1011.36 1011.40 1011.44 1011.44 1011.44 1011.44 1011.40 1011.40 1011.40 1011.36 1011.36 1011.36 1011.40 1011.40 1011.40 1011.48 1011.52 1011.52 1011.60 1011.68 1011.80 1011.84 1011.84 1011.92 1012.08 1012.16 1012.28 1012.40 1012.52 1012.64 1012.72 1012.84 1012.92 1013.08 1013.24 1013.36 1013.52 1013.64 1013.84 1014.00 1014.16 1014.36 1014.48 1014.56 1014.68 1014.84 1015.00 1015.16 1015.32 1015.48 1015.64 1015.80 1015.96 1016.08 1016.24 1016.36 1016.52 1016.64 1016.80 1016.92 1017.08 1017.24 1017.44 1017.56 1017.64 1017.76
1011.44 1011.36 1011.36 1011.36 1011.32 1011.32 1011.32 1011.28 1011.24 1011.24 1011.24 1011.20 1011.12 1011.16 1011.20 1011.20 1011.20 1011.24 1011.28 1011.28 1011.36 1011.40 1011.52 1011.56 1011.60 1011.64 1011.72 1011.80 1011.88 1012.00 1012.16 1012.24 1012.36 1012.40 1012.52 1012.64 1012.76 1012.88 1013.00 1013.16 1013.32 1013.48 1013.64 1013.84 1014.00 1014.16 1014.28 1014.40 1014.60 1014.76 1014.92 1015.08 1015.20 1015.36 1015.52 1015.64 1015.80 1015.92 1016.04 1016.16 1016.32 1016.44 1016.60 1016.80 1016.96 1017.12 1017.24 1017.32 1017.44
1011.48 1011.36 1011.32 1011.32 1011.24 1011.24 1011.20 1011.12 1011.08 1011.08 1011.04 1011.00 1010.96 1010.92 1010.96 1010.96 1011.04 1011.08 1011.08 1011.08 1011.12 1011.24 1011.28 1011.32 1011.36 1011.48 1011.56 1011.60 1011.64 1011.76 1011.92 1011.96 1012.04 1012.12 1012.20 1012.28 1012.40 1012.52 1012.64 1012.80 1012.92 1013.08 1013.28 1013.52 1013.64 1013.80 1014.00 1014.16 1014.36 1014.52 1014.64 1014.80 1014.92 1015.08 1015.24 1015.36 1015.52 1015.64 1015.76 1015.88 1016.04 1016.16 1016.32 1016.48 1016.64 1016.84 1016.96 1017.08 1017.16
1011.60 1011.48 1011.36 1011.36 1011.28 1011.24 1011.12 1011.08 1011.04 1010.96 1010.92 1010.88 1010.84 1010.80 1010.80 1010.80 1010.84 1010.84 1010.88 1010.88 1010.92 1011.00 1011.08 1011.12 1011.20 1011.24 1011.36 1011.40 1011.48 1011.56 1011.64 1011.72 1011.80 1011.84 1011.92 1012.04 1012.12 1012.24 1012.36 1012.44 1012.56 1012.76 1012.92 1013.12 1013.28 1013.48 1013.64 1013.84 1014.08 1014.24 1014.40 1014.56 1014.68 1014.84 1015.00 1015.16 1015.28 1015.36 1015.52 1015.64 1015.80 1015.92 1016.08 1016.20 1016.36 1016.52 1016.68 1016.80 1016.88
1011.76 1011.64 1011.56 1011.48 1011.36 1011.28 1011.20 1011.08 1011.04 1010.96 1010.88 1010.80 1010.76 1010.72 1010.68 1010.68 1010.68 1010.72 1010.72 1010.76 1010.76 1010.80 1010.88 1010.92 1011.00 1011.08 1011.12 1011.24 1011.32 1011.36 1011.40 1011.48 1011.56 1011.60 1011.68 1011.80 1011.92 1012.00 1012.08 1012.20 1012.32 1012.44 1012.60 1012.80 1012.92 1013.08 1013.32 1013.52 1013.76 1013.92 1014.12 1014.28 1014.44 1014.60 1014.76 1014.92 1015.04 1015.16 1015.32 1015.44 1015.56 1015.68 1015.84 1015.96 1016.12 1016.20 1016.36 1016.48 1016.52
1011.84 1011.76 1011.68 1011.56 1011.44 1011.36 1011.28 1011.12 1011.04 1010.96 1010.84 1010.76 1010.72 1010.72 1010.68 1010.64 1010.64 1010.64 1010.64 1010.60 1010.60 1010.64 1010.68 1010.76 1010.80 1010.88 1010.92 1011.00 1011.12 1011.20 1011.24 1011.28 1011.36 1011.44 1011.52 1011.60 1011.72 1011.80 1011.88 1011.96 1012.08 1012.20 1012.32 1012.48 1012.64 1012.80 1013.04 1013.24 1013.44 1013.64 1013.80 1014.00 1014.20 1014.36 1014.52 1014.68 1014.80 1014.92 1015.08 1015.24 1015.36 1015.48 1015.64 1015.76 1015.84 1015.96 1016.08 1016.20 1016.28
1011.80 1011.76 1011.64 1011.56 1011.48 1011.36 1011.24 1011.12 1011.00 1010.92 1010.80 1010.76 1010.72 1010.68 1010.64 1010.60 1010.60 1010.56 1010.52 1010.52 1010.52 1010.52 1010.60 1010.60 1010.64 1010.68 1010.76 1010.80 1010.92 1011.00 1011.04 1011.12 1011.24 1011.28 1011.36 1011.44 1011.52 1011.56 1011.64 1011.80 1011.88 1011.96 1012.08 1012.24 1012.36 1012.56 1012.76 1012.96 1013.16 1013.36 1013.56 1013.72 1013.88 1014.04 1014.20 1014.40 1014.52 1014.68 1014.84 1014.96 1015.08 1015.24 1015.36 1015.52 1015.64 1015.72 1015.84 1015.92 1016.08
1011.72 1011.64 1011.56 1011.48 1011.36 1011.24 1011.12 1011.04 1010.92 1010.80 1010.76 1010.68 1010.64 1010.60 1010.52 1010.52 1010.52 1010.48 1010.44 1010.44 1010.48 1010.48 1010.48 1010.48 1010.52 1010.52 1010.56 1010.64 1010.68 1010.80 1010.84 1010.92 1011.04 1011.08 1011.16 1011.24 1011.32 1011.36 1011.48 1011.60 1011.68 1011.80 1011.92 1012.04 1012.16 1012.32 1012.52 1012.68 1012.88 1013.08 1013.28 1013.44 1013.60 1013.72 1013.88 1014.08 1014.24 1014.40 1014.52 1014.68 1014.80 1014.96 1015.08 1015.24 1015.36 1015.48 1015.56 1015.68 1015.80
1011.64 1011.52 1011.44 1011.36 1011.24 1011.08 1010.96 1010.88 1010.80 1010.72 1010.64 1010.60 1010.52 1010.48 1010.44 1010.44 1010.36 1010.36 1010.36 1010.36 1010.36 1010.36 1010.36 1010.32 1010.32 1010.32 1010.36 1010.40 1010.48 1010.56 1010.64 1010.76 1010.80 1010.88 1010.92 1011.08 1011.12 1011.24 1011.32 1011.40 1011.52 1011.56 1011.64 1011.76 1011.92 1012.08 1012.28 1012.44 1012.64 1012.80 1012.96 1013.16 1013.28 1013.44 1013.56 1013.72 1013.92 1014.08 1014.20 1014.36 1014.52 1014.68 1014.80 1014.92 1015.08 1015.20 1015.28 1015.36 1015.48
1011.48 1011.36 1011.24 1011.16 1011.04 1010.92 1010.84 1010.76 1010.68 1010.64 1010.52 1010.44 1010.36 1010.32 1010.28 1010.20 1010.20 1010.16 1010.16 1010.20 1010.16 1010.16 1010.16 1010.16 1010.12 1010.12 1010.20 1010.20 1010.32 1010.36 1010.48 1010.52 1010.60 1010.68 1010.80 1010.88 1010.92 1011.04 1011.12 1011.20 1011.24 1011.28 1011.36 1011.44 1011.64 1011.80 1012.00 1012.20 1012.36 1012.52 1012.64 1012.84 1012.96 1013.12 1013.28 1013.40 1013.56 1013.72 1013.88 1014.08 1014.20 1014.36 1014.52 1014.64 1014.72 1014.84 1014.96 1015.08 1015.16
1011.32 1011.24 1011.08 1011.04 1010.92 1010.80 1010.72 1010.64 1010.60 1010.52 1010.40 1010.28 1010.20 1010.16 1010.12 1010.04 1010.00 1009.96 1009.96 1009.96 1009.92 1009.92 1009.92 1009.92 1009.92 1009.96 1010.00 1010.08 1010.08 1010.16 1010.20 1010.28 1010.36 1010.48 1010.56 1010.64 1010.76 1010.80 1010.88 1010.96 1011.00 1011.08 1011.12 1011.24 1011.24 1011.36 1011.52 1011.72 1011.96 1012.16 1012.36 1012.52 1012.68 1012.84 1013.00 1013.12 1013.24 1013.40 1013.56 1013.72 1013.88 1014.04 1014.20 1014.32 1014.44 1014.52 1014.64 1014.76 1014.80
1011.12 1011.04 1010.92 1010.88 1010.80 1010.68 1010.64 1010.52 1010.44 1010.32 1010.20 1010.12 1010.08 1010.00 1009.92 1009.88 1009.84 1009.80 1009.80 1009.72 1009.68 1009.64 1009.68 1009.68 1009.72 1009.76 1009.80 1009.84 1009.88 1009.92 1010.00 1010.00 1010.08 1010.20 1010.32 1010.40 1010.52 1010.60 1010.64 1010.72 1010.76 1010.80 1010.92 1010.92 1010.92 1011.00 1011.08 1011.24 1011.48 1011.72 1012.00 1012.20 1012.40 1012.56 1012.68 1012.80 1012.92 1013.08 1013.24 1013.40 1013.52 1013.68 1013.84 1013.96 1014.08 1014.20 1014.36 1014.48 1014.56
1010.96 1010.88 1010.80 1010.64 1010.60 1010.52 1010.44 1010.32 1010.20 1010.12 1010.08 1009.96 1009.92 1009.84 1009.76 1009.64 1009.64 1009.60 1009.56 1009.52 1009.48 1009.40 1009.40 1009.44 1009.48 1009.52 1009.52 1009.60 1009.64 1009.72 1009.80 1009.80 1009.88 1009.96 1010.08 1010.12 1010.24 1010.36 1010.40 1010.44 1010.52 1010.56 1010.64 1010.64 1010.64 1010.64 1010.72 1010.84 1011.00 1011.24 1011.56 1011.92 1012.08 1012.20 1012.36 1012.48 1012.64 1012.80 1012.92 1013.08 1013.24 1013.36 1013.48 1013.60 1013.72 1013.88 1014.04 1014.20 1014.36
1010.80 1010.68 1010.56 1010.52 1010.44 1010.32 1010.20 1010.12 1010.08 1009.92 1009.84 1009.76 1009.68 1009.60 1009.52 1009.48 1009.48 1009.44 1009.36 1009.32 1009.24 1009.24 1009.24 1009.24 1009.24 1009.28 1009.32 1009.36 1009.40 1009.44 1009.52 1009.56 1009.64 1009.72 1009.80 1009.88 1009.92 1010.04 1010.08 1010.16 1010.20 1010.32 1010.36 1010.36 1010.36 1010.36 1010.40 1010.48 1010.56 1010.72 1011.00 1011.40 1011.72 1011.88 1012.00 1012.16 1012.36 1012.52 1012.64 1012.76 1012.88 1013.00 1013.08 1013.24 1013.36 1013.52 1013.72 1013.92 1014.08
1010.60 1010.48 1010.36 1010.32 1010.24 1010.08 1009.96 1009.88 1009.80 1009.72 1009.56 1009.52 1009.40 1009.36 1009.28 1009.24 1009.28 1009.24 1009.16 1009.08 1009.08 1009.08 1009.08 1009.08 1009.08 1009.08 1009.16 1009.12 1009.12 1009.20 1009.28 1009.32 1009.40 1009.52 1009.60 1009.64 1009.72 1009.80 1009.84 1009.88 1009.92 1010.00 1010.08 1010.08 1010.08 1010.08 1010.12 1010.16 1010.20 1010.24 1010.48 1010.84 1011.28 1011.52 1011.68 1011.84 1012.00 1012.16 1012.28 1012.40 1012.52 1012.64 1012.76 1012.92 1013.04 1013.20 1013.36 1013.52 1013.72
1010.36 1010.28 1010.20 1010.12 1010.00 1009.88 1009.76 1009.64 1009.52 1009.40 1009.32 1009.24 1009.20 1009.12 1009.08 1009.04 1009.00 1009.00 1008.96 1008.92 1008.92 1008.84 1008.80 1008.80 1008.88 1008.92 1008.92 1008.92 1008.96 1009.00 1009.08 1009.08 1009.20 1009.28 1009.36 1009.44 1009.48 1009.52 1009.56 1009.60 1009.68 1009.76 1009.80 1009.80 1009.80 1009.80 1009.80 1009.80 1009.84 1009.88 1010.00 1010.24 1010.72 1011.08 1011.32 1011.48 1011.64 1011.80 1011.92 1012.00 1012.08 1012.20 1012.36 1012.52 1012.64 1012.80 1012.92 1013.08 1013.32
1010.08 1010.08 1010.00 1009.88 1009.76 1009.64 1009.48 1009.36 1009.24 1009.16 1009.08 1009.00 1008.92 1008.92 1008.88 1008.84 1008.80 1008.76 1008.68 1008.68 1008.64 1008.56 1008.52 1008.60 1008.64 1008.68 1008.68 1008.68 1008.76 1008.80 1008.84 1008.92 1008.96 1009.04 1009.12 1009.20 1009.20 1009.24 1009.32 1009.40 1009.44 1009.52 1009.56 1009.56 1009.56 1009.52 1009.52 1009.52 1009.52 1009.56 1009.60 1009.72 1010.16 1010.56 1010.88 1011.08 1011.24 1011.40 1011.52 1011.64 1011.72 1011.88 1012.00 1012.16 1012.32 1012.44 1012.56 1012.76 1012.92
1009.88 1009.80 1009.76 1009.64 1009.52 1009.36 1009.20 1009.08 1008.96 1008.92 1008.84 1008.80 1008.68 1008.64 1008.64 1008.56 1008.48 1008.40 1008.36 1008.32 1008.32 1008.28 1008.32 1008.40 1008.44 1008.48 1008.48 1008.52 1008.56 1008.60 1008.64 1008.68 1008.76 1008.80 1008.84 1008.88 1008.96 1009.00 1009.08 1009.16 1009.24 1009.28 1009.36 1009.32 1009.28 1009.24 1009.24 1009.24 1009.24 1009.24 1009.28 1009.36 1009.64 1010.04 1010.40 1010.64 1010.84 1011.00 1011.12 1011.24 1011.40 1011.52 1011.68 1011.80 1011.96 1012.08 1012.24 1012.40 1012.56
1009.64 1009.56 1009.52 1009.40 1009.24 1009.08 1008.92 1008.80 1008.72 1008.64 1008.56 1008.52 1008.48 1008.40 1008.32 1008.24 1008.16 1008.12 1008.08 1008.08 1008.08 1008.08 1008.08 1008.12 1008.16 1008.20 1008.20 1008.24 1008.32 1008.36 1008.40 1008.48 1008.52 1008.52 1008.56 1008.64 1008.72 1008.80 1008.84 1008.92 1008.96 1009.04 1009.08 1009.08 1009.04 1009.00 1008.96 1008.96 1008.92 1008.92 1008.96 1009.00 1009.20 1009.56 1009.96 1010.24 1010.48 1010.64 1010.80 1010.92 1011.08 1011.24 1011.36 1011.52 1011.64 1011.76 1011.92 1012.08 1012.24
1009.36 1009.32 1009.24 1009.12 1008.96 1008.80 1008.68 1008.56 1008.48 1008.36 1008.32 1008.24 1008.16 1008.08 1008.04 1007.96 1007.92 1007.88 1007.80 1007.76 1007.76 1007.76 1007.80 1007.80 1007.84 1007.88 1007.92 1007.96 1008.04 1008.08 1008.12 1008.20 1008.24 1008.32 1008.36 1008.40 1008.52 1008.56 1008.60 1008.60 1008.64 1008.72 1008.80 1008.80 1008.80 1008.76 1008.68 1008.68 1008.68 1008.68 1008.68 1008.76 1008.88 1009.16 1009.52 1009.80 1010.08 1010.20 1010.36 1010.52 1010.72 1010.88 1011.08 1011.24 1011.36 1011.48 1011.64 1011.80 1011.92
1009.16 1009.08 1008.96 1008.84 1008.72 1008.56 1008.44 1008.28 1008.20 1008.12 1008.08 1008.04 1007.92 1007.80 1007.76 1007.68 1007.64 1007.60 1007.52 1007.40 1007.44 1007.48 1007.52 1007.52 1007.52 1007.56 1007.64 1007.68 1007.76 1007.84 1007.92 1007.92 1008.00 1008.08 1008.12 1008.20 1008.28 1008.32 1008.32 1008.28 1008.36 1008.44 1008.52 1008.52 1008.48 1008.48 1008.44 1008.40 1008.40 1008.40 1008.44 1008.52 1008.64 1008.80 1009.08 1009.36 1009.60 1009.76 1009.92 1010.16 1010.36 1010.52 1010.72 1010.92 1011.08 1011.24 1011.36 1011.52 1011.68
1008.84 1008.80 1008.64 1008.52 1008.40 1008.28 1008.16 1008.04 1007.92 1007.88 1007.80 1007.76 1007.64 1007.52 1007.44 1007.36 1007.28 1007.24 1007.20 1007.12 1007.20 1007.24 1007.24 1007.24 1007.28 1007.36 1007.44 1007.48 1007.52 1007.56 1007.60 1007.68 1007.72 1007.80 1007.88 1007.92 1008.00 1008.04 1008.00 1008.00 1008.08 1008.12 1008.20 1008.20 1008.20 1008.20 1008.12 1008.12 1008.12 1008.16 1008.20 1008.32 1008.40 1008.52 1008.68 1008.96 1009.16 1009.36 1009.56 1009.76 1009.96 1010.20 1010.36 1010.60 1010.80 1010.96 1011.12 1011.24 1011.40
1008.52 1008.44 1008.36 1008.24 1008.12 1008.00 1007.88 1007.80 1007.72 1007.64 1007.52 1007.48 1007.36 1007.24 1007.12 1007.04 1006.92 1006.92 1006.88 1006.88 1006.92 1006.96 1006.96 1007.00 1007.04 1007.08 1007.16 1007.20 1007.24 1007.28 1007.28 1007.36 1007.48 1007.52 1007.56 1007.64 1007.64 1007.68 1007.72 1007.72 1007.80 1007.84 1007.92 1007.92 1007.92 1007.92 1007.84 1007.84 1007.84 1007.88 1007.92 1008.08 1008.12 1008.24 1008.36 1008.56 1008.80 1009.00 1009.24 1009.40 1009.60 1009.80 1010.04 1010.24 1010.48 1010.64 1010.84 1010.96 1011.08
1008.20 1008.16 1008.08 1008.04 1007.88 1007.72 1007.64 1007.52 1007.48 1007.36 1007.28 1007.16 1007.04 1006.92 1006.80 1006.72 1006.64 1006.64 1006.60 1006.56 1006.64 1006.68 1006.68 1006.68 1006.76 1006.80 1006.80 1006.88 1006.92 1007.00 1007.04 1007.08 1007.24 1007.28 1007.28 1007.32 1007.32 1007.36 1007.44 1007.48 1007.52 1007.60 1007.64 1007.72 1007.64 1007.64 1007.60 1007.56 1007.56 1007.60 1007.64 1007.76 1007.84 1007.92 1008.04 1008.20 1008.40 1008.64 1008.84 1009.04 1009.24 1009.44 1009.64 1009.92 1010.08 1010.32 1010.48 1010.60 1010.68
1007.92 1007.88 1007.80 1007.76 1007.64 1007.52 1007.40 1007.32 1007.24 1007.08 1006.96 1006.84 1006.72 1006.60 1006.52 1006.44 1006.36 1006.32 1006.24 1006.20 1006.28 1006.36 1006.36 1006.40 1006.44 1006.44 1006.48 1006.60 1006.64 1006.72 1006.80 1006.84 1006.92 1006.96 1007.00 1007.04 1007.04 1007.08 1007.12 1007.16 1007.20 1007.28 1007.40 1007.48 1007.44 1007.40 1007.36 1007.36 1007.28 1007.28 1007.32 1007.44 1007.60 1007.68 1007.76 1007.84 1008.04 1008.24 1008.48 1008.68 1008.88 1009.08 1009.32 1009.52 1009.68 1009.88 1010.04 1010.20 1010.24
1007.64 1007.60 1007.52 1007.48 1007.36 1007.24 1007.16 1007.08 1006.92 1006.80 1006.68 1006.60 1006.52 1006.40 1006.28 1006.16 1006.08 1005.96 1005.92 1005.88 1005.92 1006.00 1006.04 1006.08 1006.08 1006.12 1006.20 1006.32 1006.36 1006.44 1006.52 1006.52 1006.64 1006.64 1006.68 1006.72 1006.76 1006.76 1006.76 1006.80 1006.88 1006.96 1007.08 1007.16 1007.16 1007.16 1007.12 1007.08 1007.08 1007.04 1007.04 1007.16 1007.32 1007.40 1007.48 1007.52 1007.64 1007.84 1008.08 1008.24 1008.52 1008.72 1008.92 1009.12 1009.24 1009.40 1009.56 1009.76 1009.80
1007.44 1007.36 1007.28 1007.20 1007.08 1007.00 1006.92 1006.80 1006.64 1006.52 1006.40 1006.36 1006.28 1006.16 1006.04 1005.92 1005.80 1005.76 1005.68 1005.64 1005.68 1005.72 1005.76 1005.80 1005.80 1005.88 1005.92 1006.04 1006.08 1006.12 1006.20 1006.24 1006.32 1006.36 1006.36 1006.44 1006.48 1006.48 1006.44 1006.48 1006.52 1006.60 1006.72 1006.80 1006.88 1006.88 1006.88 1006.84 1006.80 1006.80 1006.80 1006.92 1007.04 1007.16 1007.24 1007.24 1007.28 1007.44 1007.60 1007.80 1008.00 1008.24 1008.48 1008.68 1008.84 1008.96 1009.08 1009.24 1009.40
Wind_Speed
9 8 8 7 7 6 6 6 6 6 6 5 6 6 6 5 5 5 5 5 5 5 5 6 6 7 7 10 12 13 13 14 14 15 16 17 16 15 14 13 12 12 12 11 11 11 11 11 10 8 6 6 7 8 8 7 9 10 10 10 9 9 10 11 11 11 11 10 8
9 8 8 8 8 6 5 5 5 5 5 5 5 5 6 5 5 5 5 5 5 5 5 5 6 7 9 11 12 13 13 14 14 15 16 17 16 15 14 13 12 12 12 12 12 11 10 11 10 8 7 6 7 8 8 8 8 9 11 12 9 9 9 10 10 11 11 10 9
8 7 7 7 7 6 6 5 5 6 6 6 5 5 5 5 5 5 5 5 5 5 5 5 6 8 10 11 12 12 12 13 14 14 14 15 15 14 14 12 12 12 12 11 11 11 10 11 10 9 8 7 8 8 8 8 8 9 10 11 9 8 8 8 9 9 9 8 9
7 7 7 7 8 8 7 6 6 7 6 6 5 5 5 5 5 5 5 5 5 5 5 5 6 7 9 10 11 11 12 13 14 14 14 14 14 14 14 13 12 12 12 11 11 11 11 11 10 9 8 9 9 9 8 8 9 9 9 9 8 7 8 7 8 8 8 7 8
7 7 6 7 8 8 8 7 7 7 6 5 5 5 5 5 5 5 5 5 5 6 6 6 6 7 8 9 11 12 12 13 14 14 13 13 14 14 14 13 13 12 12 12 12 12 12 12 9 8 8 9 8 8 8 8 9 8 7 7 7 7 7 7 7 7 7 7 7
6 6 6 7 7 7 7 7 8 7 6 6 6 6 6 5 5 5 6 6 6 6 7 7 7 7 8 9 10 11 11 12 13 13 13 13 13 13 13 14 13 13 12 12 12 13 13 12 9 8 8 8 7 8 9 10 9 9 8 8 8 7 7 8 7 7 7 8 8
5 6 6 7 7 7 6 6 7 7 6 6 7 8 8 7 7 7 8 7 6 6 7 7 8 8 8 9 10 10 11 11 11 12 12 12 12 12 13 13 13 13 12 12 13 13 12 12 10 9 8 8 7 8 10 10 10 10 10 10 9 8 8 9 7 7 8 10 11
4 5 5 6 6 7 7 7 7 7 7 6 8 9 9 9 9 9 9 7 6 6 6 6 8 8 9 9 9 10 11 11 11 12 12 11 12 12 13 13 13 13 13 12 12 13 12 11 9 9 8 8 7 9 10 12 13 13 13 12 10 9 8 7 7 8 9 11 12
3 4 4 4 5 5 6 7 7 7 7 7 8 9 9 9 10 10 9 7 7 7 7 7 8 9 9 10 10 10 10 11 11 11 11 11 12 12 12 12 13 13 12 12 12 13 13 11 9 9 8 7 7 8 10 13 14 14 14 13 11 10 9 8 9 9 10 11 12
3 4 4 4 4 5 5 6 7 8 8 9 9 9 9 10 10 9 9 7 7 7 7 8 8 9 10 10 10 10 10 10 11 11 12 12 12 12 12 12 12 12 12 12 12 13 13 11 10 9 9 8 8 9 11 13 14 14 13 11 11 11 11 10 10 10 10 11 12
4 4 4 4 4 5 5 5 6 7 8 8 9 9 9 10 9 8 7 6 7 8 9 8 9 9 10 10 10 10 10 9 10 11 11 12 13 13 13 12 12 13 12 12 12 12 12 11 11 11 11 10 10 10 11 13 14 14 13 11 11 12 12 12 11 11 11 11 12
3 4 4 4 4 5 5 5 6 6 7 8 8 9 8 9 8 8 7 7 8 9 9 8 9 10 10 9 9 10 10 10 10 11 11 12 13 13 13 13 13 13 13 13 12 11 11 12 13 13 13 12 10 9 10 13 14 14 14 12 12 12 13 13 12 11 10 11 12
3 3 3 4 4 4 5 5 5 6 7 8 8 8 8 8 8 8 8 9 9 9 8 8 9 9 10 9 9 10 10 10 11 11 12 12 13 13 13 13 14 14 14 13 13 12 12 13 14 14 14 13 11 10 11 13 14 15 15 14 14 14 14 14 13 12 12 12 12
3 3 3 4 4 4 5 5 5 6 6 8 8 8 8 8 8 8 8 9 9 9 8 7 8 9 9 10 10 10 11 11 11 12 12 13 13 13 13 13 14 14 14 13 13 14 14 14 15 15 14 14 13 12 12 14 15 15 16 16 16 16 15 14 14 13 13 14 14
3 4 4 4 4 5 5 6 6 6 7 8 8 7 7 7 8 8 8 9 9 8 7 7 8 8 9 10 10 11 11 11 12 12 13 13 13 13 14 14 14 14 14 13 13 14 15 15 15 15 15 15 14 14 14 14 15 16 17 17 17 17 16 15 15 14 14 15 15
4 4 4 4 5 5 6 6 5 6 7 8 7 7 7 7 7 7 8 9 8 7 7 8 8 8 9 10 11 11 11 11 12 12 13 13 13 14 14 14 15 15 14 14 14 14 14 15 14 14 15 15 15 15 15 15 16 17 17 18 17 17 16 15 15 15 15 15 15
4 4 4 4 5 6 7 7 6 6 7 8 8 7 7 7 6 7 8 9 8 8 8 9 8 8 8 9 10 10 11 11 12 12 13 13 13 14 14 14 15 15 15 15 15 14 14 14 14 14 15 15 15 15 15 16 16 17 17 17 17 16 16 16 16 16 16 16 16
5 5 4 4 6 7 7 8 7 7 7 8 8 7 7 7 7 7 8 8 8 8 9 9 9 9 9 9 9 9 10 10 11 12 12 12 13 13 13 14 14 14 14 14 15 15 15 15 15 14 14 15 15 15 15 15 15 16 17 17 16 16 15 15 16 16 15 16 16
6 6 6 6 6 7 8 8 8 8 8 8 7 7 7 7 8 7 7 8 8 9 10 10 9 9 9 10 10 10 10 10 11 12 12 12 12 12 13 13 13 13 14 14 15 15 15 15 15 15 15 14 14 14 14 15 15 15 16 16 15 15 15 15 15 15 15 16 16
7 8 7 7 7 7 7 8 8 8 7 7 7 7 8 8 8 8 8 9 9 9 9 10 10 10 10 10 10 10 10 10 11 11 12 11 12 12 12 12 13 13 13 14 14 15 15 15 15 15 15 14 14 15 15 14 14 14 15 14 14 14 15 15 15 15 15 15 15
7 8 8 8 8 7 7 7 7 7 7 7 8 8 8 8 8 9 9 9 9 9 9 10 10 10 10 10 11 11 10 10 10 11 11 11 12 12 12 12 12 12 13 13 13 14 15 15 15 15 14 14 15 15 15 14 14 14 14 13 13 14 14 14 14 14 14 14 15
7 7 7 8 8 8 8 8 7 7 7 7 8 8 8 8 9 9 9 8 8 9 9 10 10 10 11 11 11 11 10 9 10 10 11 11 11 11 11 11 12 12 12 13 13 14 14 14 14 14 14 14 15 15 15 15 15 15 15 14 14 14 14 14 14 14 14 14 14
7 7 7 7 8 8 8 8 8 7 7 8 8 8 8 9 9 9 9 8 8 9 10 10 10 10 10 10 11 10 10 10 10 10 10 10 11 11 11 11 12 12 13 12 12 13 13 13 14 14 14 14 14 15 15 16 15 15 15 15 15 14 14 14 14 14 14 14 14
7 7 7 7 7 7 8 7 7 8 8 8 8 8 8 9 9 8 8 9 9 10 10 9 9 9 10 10 10 10 11 11 11 11 11 11 11 11 11 11 12 12 12 11 12 13 13 12 12 12 13 13 14 14 15 15 15 15 15 15 15 14 14 14 14 14 14 14 14
8 8 7 7 7 7 7 7 8 8 8 9 8 8 8 8 8 8 8 9 10 10 10 10 9 9 9 9 10 10 11 11 12 12 11 11 11 11 11 11 11 11 10 11 16 19 19 17 14 12 12 12 13 13 14 15 15 15 15 15 15 14 14 14 14 14 14 14 14
8 7 7 7 7 7 7 8 8 8 9 8 8 8 8 8 8 8 8 9 10 10 10 10 10 9 9 9 9 10 10 11 11 12 12 12 12 12 11 11 10 9 9 12 19 23 25 24 21 17 14 11 12 12 13 13 14 15 15 15 15 14 14 14 15 15 15 14 14
7 7 8 8 8 8 8 8 8 8 8 8 9 9 9 9 8 8 8 9 10 9 9 9 9 9 9 8 9 10 10 10 10 11 12 12 12 12 12 11 10 8 10 15 21 25 27 27 27 24 19 13 12 13 13 12 13 14 15 15 15 15 15 15 15 15 15 14 14
7 7 8 9 9 9 9 8 8 8 9 9 9 9 9 9 9 9 9 9 8 8 7 7 7 7 7 7 9 10 11 10 10 10 11 11 12 13 12 11 10 10 12 18 23 25 27 27 28 27 24 17 13 12 13 12 13 13 13 14 14 15 15 15 15 15 15 14 14
9 9 9 9 10 10 9 9 9 9 9 9 9 9 9 9 9 9 9 9 8 8 7 6 6 6 6 7 9 9 10 10 10 10 10 11 12 12 12 12 11 12 15 21 24 25 27 27 28 28 27 24 15 12 11 12 12 12 12 12 13 14 14 14 14 14 14 14 14
9 9 9 9 10 10 10 9 10 9 9 8 8 8 8 9 9 9 9 9 9 8 8 6 6 6 7 9 8 8 9 10 9 9 10 11 12 12 12 12 11 12 16 22 24 26 26 27 28 28 28 28 19 14 11 11 12 12 12 12 13 14 15 15 15 15 14 13 14
9 9 9 9 10 10 10 10 10 9 9 8 8 8 9 9 9 9 8 8 8 8 7 6 8 8 9 9 8 8 8 8 9 9 10 11 13 13 13 13 12 13 16 22 24 26 26 27 28 28 29 29 22 16 12 12 13 12 12 12 14 15 15 15 15 16 15 15 14
9 9 9 9 10 11 11 10 10 9 9 9 9 9 9 10 9 8 7 6 6 7 7 7 8 9 9 8 8 8 8 9 9 10 11 11 12 12 12 12 12 13 16 22 24 26 26 27 27 28 29 29 23 18 14 13 13 13 13 13 14 15 15 14 14 15 16 16 15
9 9 9 9 10 11 10 10 10 9 9 9 9 10 10 10 8 7 7 6 6 6 7 8 9 9 9 8 8 9 9 9 10 11 12 12 12 12 12 12 12 14 17 22 25 26 26 27 27 28 28 29 23 18 15 14 13 12 13 13 14 15 16 16 15 15 16 16 15
9 9 9 9 10 10 10 10 9 9 9 9 10 10 9 8 8 8 7 6 6 6 7 7 8 8 9 9 8 9 9 10 10 11 11 12 12 12 13 12 10 13 18 23 25 26 26 27 27 27 28 29 22 17 15 15 14 13 13 14 14 14 15 15 15 15 15 15 14
9 8 8 9 9 9 9 9 9 9 9 9 10 10 9 8 8 8 8 7 7 7 6 7 7 7 7 8 8 9 10 11 10 11 11 11 12 13 13 13 11 14 19 23 25 26 26 27 27 27 27 26 19 14 13 15 15 15 15 15 15 15 15 15 14 14 14 14 14
8 8 8 9 9 9 9 9 9 9 9 9 10 10 9 8 8 8 7 7 7 6 6 6 6 6 7 8 8 9 10 11 11 11 11 12 12 13 14 14 13 16 20 23 24 25 26 26 27 27 26 22 16 12 11 13 13 15 16 16 15 15 15 15 14 13 13 13 13
8 8 8 9 9 9 9 9 9 9 9 10 9 9 8 8 7 7 6 6 6 6 6 6 6 7 8 8 9 9 10 11 11 11 12 12 13 13 13 13 13 15 19 23 24 25 26 26 27 26 24 19 14 11 10 10 11 13 15 16 15 15 15 14 13 13 13 13 14
8 8 8 9 9 10 10 9 9 10 10 10 9 8 7 7 6 6 6 6 6 7 7 7 7 8 8 8 9 10 10 10 11 12 12 12 13 13 13 13 13 14 17 21 24 25 25 26 27 26 24 17 14 11 10 9 10 12 13 14 14 14 14 12 12 12 13 14 17
8 8 8 9 9 10 10 10 10 10 10 10 9 8 7 6 5 5 5 6 6 7 7 7 8 8 8 9 9 10 10 11 11 12 12 12 13 13 14 14 13 13 15 20 23 25 25 26 26 26 24 19 14 11 9 8 10 11 12 12 12 13 13 12 11 11 12 15 21
8 8 9 9 9 10 10 10 10 10 9 9 9 8 7 7 6 6 5 5 6 6 7 7 8 8 9 9 9 10 10 11 11 12 12 13 13 15 16 15 13 13 15 19 23 24 25 26 26 26 25 18 14 11 9 8 9 11 12 12 11 11 12 12 11 11 12 14 19
8 8 9 9 9 10 10 11 11 10 9 8 8 8 7 7 6 6 5 5 6 6 6 7 8 8 9 9 9 9 10 10 11 11 12 13 14 15 16 15 13 13 14 17 22 24 25 26 26 26 25 18 14 11 9 8 9 11 13 13 12 11 11 11 11 11 11 13 14
Wind_Direction
221 217 215 216 218 220 222 224 222 220 217 215 217 218 218 218 221 219 211 201 201 200 197 194 195 194 194 194 197 200 203 204 205 207 209 211 212 212 211 210 208 206 204 201 196 193 194 196 196 198 201 202 203 204 203 201 200 199 199 198 198 197 196 197 197 195 193 192 191
225 219 215 214 216 217 220 222 222 220 218 214 214 215 216 215 218 217 213 205 203 198 195 195 193 192 193 196 198 200 203 205 206 208 210 212 213 212 211 211 209 207 204 200 195 194 194 195 195 197 200 201 203 204 204 201 197 198 200 199 197 196 196 199 199 196 194 193 190
227 223 218 213 212 212 214 218 219 218 217 216 213 213 214 216 216 216 214 209 203 198 194 195 193 193 194 196 199 201 203 205 206 208 211 213 214 213 212 212 211 208 205 201 197 195 194 194 195 197 198 200 201 203 203 200 197 198 200 200 197 196 197 200 198 196 195 194 189
227 225 221 217 212 211 211 213 214 214 214 213 212 213 215 216 216 216 215 211 205 202 199 197 195 194 194 196 200 202 204 206 207 209 211 214 214 214 213 212 211 209 206 202 199 197 195 193 196 198 199 199 201 202 202 197 196 197 200 199 197 196 197 198 196 194 194 194 189
228 225 222 219 214 212 210 209 210 210 210 209 210 213 216 217 218 218 217 215 212 208 204 197 197 196 196 196 199 202 205 207 208 210 212 214 215 214 213 212 211 209 206 202 200 198 196 193 197 201 202 200 200 201 200 194 194 196 198 198 198 198 197 196 195 193 192 191 189
229 227 225 223 217 215 213 209 207 207 207 204 207 211 215 216 216 217 218 218 216 211 205 200 200 199 198 196 198 201 204 207 209 210 212 214 215 215 214 213 212 210 206 203 200 199 197 195 199 202 203 200 201 201 198 191 192 194 197 199 199 198 196 196 193 190 188 189 188
228 227 226 225 220 218 216 212 208 206 204 203 206 209 212 213 214 216 217 218 215 210 206 204 204 202 199 197 199 201 203 206 209 211 212 213 214 214 214 214 212 210 207 203 201 200 200 198 202 204 204 201 201 199 196 191 191 193 196 199 199 197 196 196 192 189 188 188 189
228 226 225 224 221 219 216 212 209 207 206 207 209 210 211 211 213 215 216 217 215 212 209 208 205 203 200 198 199 200 202 204 208 210 211 212 213 214 214 214 212 210 207 203 202 201 202 202 205 206 205 201 200 198 196 192 192 194 196 198 198 196 194 193 190 188 188 189 190
233 231 229 228 224 220 215 212 208 207 209 212 212 211 210 210 212 214 216 218 216 213 210 209 206 203 201 200 200 200 200 201 204 207 209 211 212 213 213 213 213 211 208 204 203 203 203 205 208 209 207 203 202 200 196 194 194 195 197 197 197 196 195 192 190 189 190 190 193
232 233 232 232 231 225 219 213 210 209 211 215 215 214 212 213 213 214 216 217 216 214 212 210 206 204 203 202 201 200 199 200 202 205 207 210 211 211 212 212 211 210 209 205 204 204 204 207 210 211 209 206 203 200 197 196 197 197 198 198 197 196 195 194 192 192 193 194 197
231 230 229 229 230 227 222 217 214 213 215 219 219 218 217 217 216 216 216 215 215 215 213 208 204 204 205 205 203 201 199 198 200 203 205 208 209 210 209 210 209 209 207 205 203 204 205 208 211 211 209 206 202 198 196 196 197 198 198 199 197 196 196 196 194 195 196 198 200
238 236 232 230 228 226 223 221 219 218 219 222 223 223 222 222 220 218 217 215 216 216 214 206 202 202 204 205 204 202 200 199 199 201 203 206 207 207 207 208 208 207 206 203 201 202 205 209 210 209 208 205 200 196 194 194 196 197 198 199 197 196 197 197 196 197 198 200 201
247 243 240 236 230 227 225 225 224 222 223 224 226 226 226 227 224 221 219 218 218 218 214 206 202 202 203 205 204 203 202 201 201 201 202 204 204 205 205 206 207 207 206 204 201 202 204 207 208 207 205 203 199 195 192 191 193 195 196 197 197 198 199 199 197 198 199 200 203
252 246 242 239 233 230 228 228 228 227 226 227 227 227 227 229 226 224 222 222 222 219 215 209 206 205 205 204 203 203 203 203 203 203 204 204 203 203 203 205 206 206 206 205 203 203 204 206 205 204 202 201 198 194 190 189 191 193 195 197 198 199 200 199 198 197 198 200 203
255 248 243 238 235 233 231 230 230 229 229 229 229 227 226 228 227 225 224 225 224 220 215 211 212 210 208 205 203 203 203 204 204 205 205 205 203 202 203 204 205 205 206 205 204 204 204 205 204 202 201 200 197 193 190 190 192 194 196 197 199 200 200 200 198 198 199 200 202
258 253 247 241 238 235 233 231 232 231 230 231 228 226 225 226 226 224 224 225 225 221 217 214 214 213 211 208 206 204 204 205 205 206 207 207 205 204 203 204 204 204 204 204 205 205 205 204 203 201 200 199 197 194 192 192 194 196 198 199 201 201 201 200 198 199 200 201 203
267 261 254 248 244 240 238 236 235 233 231 231 228 226 224 224 224 224 224 224 224 223 220 218 215 213 212 212 209 207 206 207 207 208 208 208 207 206 205 204 204 203 202 202 203 203 203 203 202 201 201 200 198 196 195 194 196 198 200 202 203 203 203 201 200 200 201 202 204
286 278 269 261 252 248 244 242 240 238 235 233 230 227 224 223 223 224 225 224 223 222 222 221 217 214 213 213 211 210 209 210 210 210 210 209 208 208 207 206 204 202 201 201 202 202 202 201 201 201 201 201 200 199 198 197 199 200 202 203 204 204 204 203 202 202 203 204 206
305 299 291 280 267 259 254 250 248 245 241 237 234 231 229 226 224 225 226 226 223 222 222 223 221 218 215 213 213 212 212 213 213 213 212 211 210 209 208 206 204 202 201 200 201 201 201 200 199 200 200 201 202 201 200 200 201 202 203 205 205 205 205 204 204 204 204 205 207
313 310 305 297 287 277 269 261 257 253 250 246 242 238 235 232 229 228 229 229 226 223 223 224 223 221 219 215 214 215 216 216 216 216 215 213 211 210 209 206 205 203 201 200 201 201 201 200 200 200 200 200 201 202 202 202 203 203 204 205 206 206 206 205 205 205 205 206 207
314 312 309 306 300 293 285 275 268 263 259 255 249 245 241 238 235 233 232 232 229 227 226 226 225 223 221 218 217 217 218 218 217 217 217 215 213 211 209 205 204 203 202 200 201 201 201 201 201 200 200 200 201 202 202 202 203 204 204 205 206 206 206 206 206 206 207 207 208
306 306 304 303 300 296 291 286 279 273 266 260 255 250 246 243 240 238 236 234 232 230 230 228 227 225 223 220 218 218 218 219 218 218 217 216 215 212 209 206 205 204 203 201 201 201 202 202 201 201 200 201 202 202 202 202 203 204 204 205 206 206 206 206 206 207 207 207 208
296 296 295 294 292 291 290 288 284 278 272 266 260 255 251 247 244 241 238 236 234 233 232 232 229 227 224 222 220 219 219 219 219 218 217 215 215 213 210 207 206 206 205 203 201 201 201 202 203 202 201 202 202 202 202 202 203 204 204 205 205 205 205 206 206 207 207 208 208
287 287 287 287 286 286 285 284 282 279 274 269 264 259 254 250 246 243 239 236 234 233 233 233 231 228 226 224 221 220 219 218 218 218 216 214 214 212 211 209 209 208 207 204 201 200 199 200 201 202 202 202 202 202 203 203 203 203 204 204 205 205 205 206 206 206 207 207 208
280 280 281 281 282 281 281 279 278 275 272 270 266 262 258 253 248 243 239 236 234 232 232 232 231 229 227 225 223 221 219 218 217 217 216 214 213 212 212 212 212 211 210 208 207 205 204 203 201 201 201 201 202 203 203 204 204 203 203 203 204 205 206 207 207 207 207 208 208
276 276 277 277 278 278 276 274 272 270 269 269 268 266 262 257 252 246 241 239 236 233 231 229 229 228 226 226 224 223 221 220 218 216 215 214 213 213 212 214 214 213 212 211 211 211 210 208 206 203 201 200 201 202 203 205 204 204 204 204 204 205 205 207 208 208 208 209 208
276 275 275 274 275 274 272 269 268 268 267 267 266 265 263 260 257 252 247 243 239 235 231 228 227 227 226 226 224 223 222 221 219 217 215 214 214 213 214 215 214 213 213 213 215 215 215 214 211 207 203 199 199 201 202 204 204 204 205 205 206 206 207 208 209 209 209 210 210
277 275 274 275 274 271 269 268 268 267 265 264 262 262 261 260 258 255 252 248 243 239 234 231 227 226 225 226 225 223 222 220 219 217 216 216 215 215 215 215 214 213 213 214 216 218 218 218 216 212 207 199 199 200 202 202 202 203 205 207 208 209 209 209 209 209 209 210 210
273 273 274 274 271 270 268 268 266 264 263 262 261 261 260 260 258 256 254 252 247 242 238 233 228 226 225 226 226 224 222 220 218 217 217 217 218 218 217 216 216 215 215 216 218 219 221 221 220 217 211 202 199 198 200 202 203 204 206 208 209 209 209 209 210 210 209 209 208
271 270 270 269 269 269 268 265 263 262 262 262 262 261 260 259 258 256 254 251 247 242 237 232 227 225 225 225 224 224 222 221 218 216 215 217 218 219 219 218 216 217 217 218 220 221 222 223 223 221 216 207 201 198 199 203 205 206 207 209 210 210 210 210 210 210 210 209 208
270 267 265 265 267 267 266 264 263 263 262 263 261 260 259 258 256 254 251 249 246 243 238 232 228 227 226 224 222 222 222 221 218 216 215 217 219 220 220 220 218 218 220 220 222 223 224 225 224 223 220 213 204 199 197 201 204 206 208 209 210 210 210 210 210 210 210 209 208
267 264 262 263 264 265 266 266 265 264 262 261 260 259 257 255 253 251 249 247 245 242 238 233 230 229 228 225 223 222 221 220 218 217 216 217 219 221 221 221 219 219 221 222 224 225 226 226 226 225 223 219 210 201 195 198 203 206 208 210 210 209 209 209 210 210 210 209 208
265 262 260 260 263 265 266 267 267 265 263 261 259 258 257 255 254 252 249 246 243 239 235 231 230 229 228 226 224 223 222 220 219 219 219 219 220 221 222 223 222 221 222 223 225 226 227 227 227 226 225 222 216 205 195 195 199 204 207 209 209 209 209 210 210 210 210 209 208
264 262 260 260 262 264 267 268 267 266 264 262 260 258 256 255 255 253 250 246 241 237 232 230 228 228 227 225 223 223 224 223 221 220 220 219 220 221 223 223 224 223 223 225 226 227 228 228 228 227 226 225 221 210 196 193 197 201 204 206 207 208 208 209 210 210 209 207 207
262 263 263 264 264 265 267 268 268 268 266 265 263 260 257 253 252 250 249 246 242 239 235 231 229 228 228 227 225 224 225 225 224 222 220 219 220 222 224 224 225 225 225 226 227 228 228 228 228 228 227 226 224 214 200 194 196 199 201 203 205 206 207 207 208 208 208 206 206
265 269 272 274 274 274 274 274 274 273 272 269 267 265 261 256 252 248 245 244 242 239 237 233 231 229 229 229 228 226 226 225 225 224 222 220 220 222 224 225 225 225 225 227 228 228 228 228 228 228 226 225 224 216 204 195 196 198 199 201 203 205 205 205 206 206 206 205 205
278 281 283 284 284 283 282 281 281 280 278 275 272 269 266 261 257 250 244 239 238 237 237 233 231 229 228 228 228 228 227 225 225 225 225 223 222 223 225 225 224 224 225 227 229 229 229 229 228 227 226 224 223 217 208 196 195 196 198 200 202 203 204 204 204 204 204 203 204
287 287 286 287 286 286 285 285 283 282 280 278 276 274 271 266 261 252 243 235 233 234 235 234 231 229 228 226 228 229 228 226 225 226 227 226 224 224 224 226 224 223 224 227 229 230 230 229 229 227 225 223 221 217 210 198 194 195 197 200 202 202 202 203 203 203 204 204 205
288 288 287 287 287 287 286 286 284 282 281 281 280 280 278 274 267 256 244 232 228 229 232 233 231 229 227 225 228 229 229 227 226 227 227 228 227 226 225 226 224 223 223 225 228 230 231 230 229 228 225 223 219 217 212 201 195 194 196 198 200 201 201 202 203 203 204 205 208
289 289 288 287 286 287 287 286 285 283 283 283 283 283 282 279 273 264 252 236 227 226 228 231 230 229 227 225 228 229 230 229 226 226 227 228 230 230 229 229 225 222 222 224 227 229 231 231 231 229 226 224 218 216 213 204 197 195 195 196 197 198 200 201 202 203 203 205 209
289 288 287 286 285 285 286 286 286 285 285 284 283 283 282 282 278 272 261 245 233 227 226 229 229 227 226 226 228 229 229 230 227 226 226 227 231 232 232 232 227 222 220 222 225 228 230 231 232 230 228 225 218 215 213 208 199 196 195 195 194 195 197 199 201 202 202 202 206